GSAT0209 (GALILEO 12) (41174 NORAD) Tracking and Keplerian Element Data

This shows tracking and keplerian element data for the satellite.

Feedback or suggestion? Click here.




ElementValue
Catalog41174
NameGSAT0209 (GALILEO 12)
Epoch Orbit1605
Epoch Day198.18020695
Epoch Year2018
RAAN180.8033
Inclination54.9259
Eccentricity0.0006592
Argument of Perigee293.0861
Mean Anonmoly66.8125
Mean Motion1.70473285
Decay Rate5E-07
L11 41174U 15079A 18198.18020695 .00000050 00000-0 00000+0 0 9991
L22 41174 54.9259 180.8033 0006592 293.0861 66.8125 1.70473285 16054

Live tracking and technical data element details for GSAT0209 (GALILEO 12) (NORAD 41174). GSAT0209 (GALILEO 12) can be tracked NOW for your location showing map with azimuth and elevation plus other details from your city location.

Track the satellite on the map from your city or location and see movement details for azimuth, elevation, latitude, longitude, range, height, and movement on the map or in text.







IsCatalogInMostPopularTable: catalog: 41174, numindb: 71
Update: records affected: 1



GetName: 41174 GSAT0209 (GALILEO 12)

Hit Count: updated at: Thu, 19 Jul 2018 21:27:02 GMT